Thermal, CA

4:08 PM PDT on June 26, 2017 (GMT -0700)
Desert Resorts Regional

Weather History for KTRM - May, 2012

Change the Weather History Date:

Sunday, May 27, 2012

  Actual Average Record
Temperature  
Mean Temperature 77 °F 81 °F  
Max Temperature 92 °F 98 °F 113 °F (1951)
Min Temperature 61 °F 64 °F 57 °F (1998)
Degree Days  
Heating Degree Days 0 0  
Month to date heating degree days 0 0  
Since 1 July heating degree days 1243 1180  
Cooling Degree Days 12 16  
Month to date cooling degree days 455 351  
Year to date cooling degree days 722 607  
Growing Degree Days 26 (Base 50)    
Moisture  
Dew Point 38 °F    
Average Humidity 32    
Maximum Humidity 52    
Minimum Humidity 11    
Precipitation  
Precipitation 0.00 in 0.01 in 0.42 in (1981)
Month to date precipitation 0.00 0.03  
Year to date precipitation 0.36 1.80  
Since 1 July precipitation 1.35  
Snow  
Snow 0.00 in - - ()
Month to date snowfall 0.0  
Year to date snowfall 0.0  
Snow Depth 0.00 in    
Sea Level Pressure  
Sea Level Pressure 29.89 in    
Wind  
Wind Speed 9 mph (NW)    
Max Wind Speed 23 mph    
Max Gust Speed 30 mph    
Visibility 10 miles    
Events      
T = Trace of Precipitation, MM = Missing Value Source: NWS Daily Summary

Daily Weather History Graph

Daily Weather History Graph

Search for Another Location

Airport or City:

Trip Planner

Search our weather history database for the weather conditions in past years. The results will help you decide how hot, cold, wet, or windy it might be!

Date:

Astronomy

May. 27, 2012 Rise Set
Actual Time 5:36 AM PDT 7:47 PM PDT
Civil Twilight 5:08 AM PDT 8:15 PM PDT
Nautical Twilight 4:34 AM PDT 8:50 PM PDT
Astronomical Twilight 3:56 AM PDT 9:27 PM PDT
Moon 11:36 AM PDT (5/27) 12:05 AM PDT (5/27)
Length of Visible Light 15h 06m
Length of Day
14h 10m
Waxing Crescent, 39% of the Moon is Illuminated
May 27
Waxing Crescent
May 28
First Quarter
Jun 4
Full
Jun 11
Last Quarter
Jun 19
New

Hourly Weather History & Observations

Time (PDT) Temp. Dew Point Humidity Pressure Visibility Wind Dir Wind Speed Gust Speed Precip Events Conditions
12:52 AM 64.9 °F 43.0 °F 45% 29.88 in 9.0 mi NNW 21.9 mph 32.2 mph N/A   Clear
1:52 AM 64.9 °F 42.1 °F 43% 29.88 in 10.0 mi NNW 18.4 mph 25.3 mph N/A   Clear
2:52 AM 64.9 °F 42.1 °F 43% 29.88 in 10.0 mi NNW 16.1 mph - N/A   Clear
3:52 AM 63.0 °F 43.0 °F 48% 29.90 in 10.0 mi NW 12.7 mph 20.7 mph N/A   Clear
4:52 AM 62.1 °F 44.1 °F 52% 29.91 in 10.0 mi NNW 8.1 mph - N/A   Clear
5:52 AM 62.1 °F 43.0 °F 50% 29.93 in 10.0 mi NNW 12.7 mph - N/A   Clear
6:52 AM 64.0 °F 44.1 °F 48% 29.94 in 10.0 mi NNW 10.4 mph - N/A   Clear
7:52 AM 68.0 °F 42.1 °F 39% 29.96 in 10.0 mi NNW 11.5 mph - N/A   Clear
8:52 AM 73.0 °F 39.9 °F 30% 29.96 in 10.0 mi WNW 8.1 mph - N/A   Clear
9:52 AM 75.9 °F 39.9 °F 27% 29.96 in 10.0 mi Calm Calm - N/A   Clear
10:52 AM 81.0 °F 30.9 °F 16% 29.95 in 10.0 mi Calm Calm - N/A   Clear
11:52 AM 84.9 °F 32.0 °F 15% 29.94 in 10.0 mi Variable 5.8 mph - N/A   Clear
12:52 PM 88.0 °F 30.9 °F 13% 29.92 in 10.0 mi Variable 6.9 mph - N/A   Clear
1:52 PM 88.0 °F 30.9 °F 13% 29.89 in 10.0 mi Variable 4.6 mph - N/A   Clear
2:52 PM 89.1 °F 30.0 °F 12% 29.87 in 10.0 mi South 5.8 mph - N/A   Clear
3:52 PM 90.0 °F 28.9 °F 11% 29.86 in 10.0 mi Variable 4.6 mph - N/A   Clear
4:52 PM 89.1 °F 35.1 °F 15% 29.84 in 10.0 mi ESE 12.7 mph - N/A   Clear
5:52 PM 87.1 °F 36.0 °F 16% 29.83 in 10.0 mi SSE 11.5 mph - N/A   Clear
6:52 PM 84.0 °F 36.0 °F 18% 29.83 in 10.0 mi SE 9.2 mph - N/A   Clear
7:52 PM 77.0 °F 39.0 °F 25% 29.84 in 10.0 mi ESE 5.8 mph - N/A   Clear
8:52 PM 71.1 °F 41.0 °F 34% 29.84 in 10.0 mi SSW 5.8 mph - N/A   Clear
9:52 PM 66.9 °F 42.1 °F 40% 29.86 in 10.0 mi West 5.8 mph - N/A   Clear
10:52 PM 69.1 °F 44.1 °F 40% 29.87 in 10.0 mi WNW 5.8 mph - N/A   Clear
11:52 PM 62.1 °F 43.0 °F 50% 29.87 in 10.0 mi Calm Calm - N/A   Clear